Location: ??????????
(48.4699°N, 37.9573°E)
Time: 21:09:41
(UTC+00:00)

TIMED - Pass Details

Date: 20 January 2021
Orbit: 602 x 604 km, 74.1° (Epoch: 02 March)

Event Time Altitude Azimuth Distance (km) Brightness Sun altitude
Rises 14:43:16 0° 337° (NNW) 2,870 8.0 -6.0°
Reaches altitude 10° 14:45:31 10° 339° (NNW) 1,962 7.1 -6.4°
Maximum altitude 14:49:55 80° 66° (ENE) 621 4.5 -7.0°
Drops below altitude 10° 14:54:16 10° 154° (SSE) 1,947 7.1 -7.7°
Sets 14:56:30 0° 156° (SSE) 2,846 7.9 -8.1°
